Kuiper-00089

operational
NORAD ID: 64834 Int'l Des: 2025-151 Owner: KUIP Country: US Constellation: kuiper
LEOCIRCULAR

About Kuiper-00089

Description loading...

Live Position

Loading 3D Globe...

Upcoming Passes

Altitude History

Altitude vs Time

uPlot chart will show altitude changes over time

Two-Line Element Set

1 64834U 25151U 26063.06847269 .00006261 00000-0 85225-3 0 9998
2 64834 51.9004 310.4336 0000712 86.3822 273.7222 14.79795846 34681
Epoch: Mar 4, 2026 • Age: 13 hours

Current Status

Altitude 638.7 km
Velocity 7.54 km/s
Sub-Earth Point -28.56°S, 71.37°W
Launch Date Jul 16, 2025
Age 0.6 years
Type internet

Technical Details

Classification Payload
Mass 490.00 kg
Dry Mass 490.00 kg
Total Mass 490.00 kg
Length 1.80 m
Diameter 0.70 m
Span 5.00 m
Shape Box + 2 pan
Manufacturer KUIP
Bus Type Kuiper
Phase Status In Orbit
Owner/State KUIP/US

Large Constellations

Loading constellations...